[[{"header":{"parameterUnit":"m.s-1","parameterCategory":1,"la1":30.2992,"la2":30.254,"lo1":-89.0895,"lo2":-89.0443,"dy":0.0025,"dx":0.0025,"nx":19,"ny":19,"refTime":"2026-03-27T21:00:00:Z","depth":0,"parameterNumber":2,"parameterNumberName":"U-component_of_WINDS"},"data":[0,0,0,-7.3721,-7.3722,-7.3772,-7.3772,-7.3874,-7.3875,0,0,0,0,0,0,0,0,0,0,0,-7.373,-7.3732,-7.372,-7.3722,-7.3772,-7.3772,-7.3874,-7.3875,0,0,0,0,0,0,0,0,0,0,0,-7.373,-7.3731,-7.3733,-7.3723,-7.3772,-7.3772,-7.3874,-7.3822,0,0,0,0,0,0,0,0,0,0,-7.3767,-7.38,-7.3731,-7.3733,-7.3723,-7.3772,-7.3772,-7.3819,-7.3825,-7.3869,0,-7.3915,0,-7.3897,-7.3885,-7.3885,0,0,0,-7.3704,-7.3795,-7.3787,-7.3734,-7.3724,-7.3772,-7.3744,-7.3822,-7.3829,-7.3878,-7.3916,-7.3918,-7.3899,-7.3886,-7.3887,-7.42,-7.4203,0,0,-7.3701,-7.3752,-7.3782,-7.3793,-7.3788,-7.3743,-7.3746,-7.3826,-7.387,-7.3916,-7.392,-7.3901,-7.3887,-7.3888,-7.4198,-7.4201,0,0,0,-7.3706,-7.3751,-7.3739,-7.379,-7.3796,-7.3745,-7.3748,-7.3867,-7.3859,-7.3921,-7.3902,-7.3888,-7.3889,-7.4196,-7.4199,-7.4363,0,0,0,-7.3703,-7.3753,-7.3739,-7.3771,-7.3795,-7.3832,-7.3788,-7.3853,-7.3861,-7.3901,-7.3888,-7.3891,-7.4193,-7.4197,-7.4352,-7.443,0,0,0,-7.3719,-7.3755,-7.377,-7.3773,-7.3797,-7.3829,-7.3825,-7.3854,-7.385,-7.3886,-7.3891,-7.4191,-7.4197,-7.4343,-7.4415,-7.4527,0,0,0,-7.3749,-7.3915,-7.3774,-7.3952,-7.3797,-7.3931,-7.3824,-7.3922,-7.3972,-7.3888,-7.4193,-7.4199,-7.434,-7.4406,-7.4517,-7.4628,-7.4679,0,0,-7.3986,-7.3945,-7.4046,-7.3921,-7.4094,-7.3919,-7.4116,-7.4113,-7.407,-7.4159,-7.4166,-7.4356,-7.4414,-7.4525,-7.4954,-7.4996,0,0,0,-7.4138,-7.421,-7.4245,-7.4296,-7.4299,-7.4308,-7.427,-7.427,-7.4343,-7.4127,-7.4426,-7.4459,-7.4522,-7.4572,-7.4607,-7.4657,-7.4225,-7.4224,-7.4224,-7.4543,-7.448,-7.4642,-7.4586,-7.4637,-7.4598,-7.4633,-7.4625,-7.4546,-7.4619,-7.4643,-7.4912,-7.4973,-7.4999,-7.5052,-7.4699,-7.47,-7.47,-7.4701,-7.4882,-7.4974,-7.4868,-7.4986,-7.492,-7.5018,-7.4988,-7.493,-7.5011,-7.4888,-7.494,-7.4807,-7.5046,-7.5089,-7.4712,-7.471,-7.4709,-7.4708,-7.4707,-7.5138,-7.5171,-7.5169,-7.5237,-7.5296,-7.5234,-7.5319,-7.5255,-7.5195,-7.5247,-7.5266,-7.5263,-7.525,-7.5262,-7.5263,-7.5263,-7.5264,-7.5265,-7.5265,-7.5403,-7.5395,-7.5474,-7.5494,-7.5519,-7.5543,-7.5508,-7.5531,-7.5539,-7.5486,-7.5486,-7.5399,-7.5083,-7.5003,-7.528,-7.5277,-7.5275,-7.5274,-7.5273,-7.5764,-7.5673,-7.5795,-7.5821,-7.5838,-7.5902,-7.5821,-7.5873,-7.5883,-7.5927,-7.5831,-7.5608,-7.556,-7.5532,-7.5465,-7.5845,-7.5845,-7.5845,-7.5845,-7.5978,-7.595,-7.606,-7.6105,-7.6141,-7.6082,-7.6221,-7.6197,-7.6157,-7.6159,-7.6096,-7.6003,-7.5977,-7.5945,-7.5908,-7.5844,-7.6312,-7.6312,-7.6313,-7.6196,-7.6169,-7.6299,-7.626,-7.627,-7.6281,-7.641,-7.6465,-7.6401,-7.633,-7.6159,-7.6139,-7.5989,-7.5944,-7.5865,-7.5809,-7.5691,0,0]},{"header":{"parameterUnit":"m.s-1","parameterCategory":1,"la1":30.2992,"la2":30.254,"lo1":-89.0895,"lo2":-89.0443,"dy":0.0025,"dx":0.0025,"nx":19,"ny":19,"refTime":"2026-03-27T21:00:00:Z","depth":0,"parameterNumber":3,"parameterNumberName":"V-component_of_WINDS"},"data":[0,0,0,2.0968,2.0968,2.0964,2.0964,2.0939,2.0939,0,0,0,0,0,0,0,0,0,0,0,2.096,2.096,2.0968,2.0968,2.0964,2.0964,2.0939,2.0939,0,0,0,0,0,0,0,0,0,0,0,2.096,2.096,2.0959,2.0968,2.0964,2.0964,2.0939,2.0949,0,0,0,0,0,0,0,0,0,0,2.0956,2.0939,2.096,2.0959,2.0968,2.0964,2.0964,2.0949,2.0948,2.0934,0,2.092,0,2.0929,2.0936,2.0936,0,0,0,2.0974,2.094,2.0949,2.0959,2.0968,2.0964,2.0967,2.0949,2.0947,2.0932,2.092,2.092,2.0929,2.0936,2.0936,2.084,2.0839,0,0,2.0974,2.0953,2.095,2.0947,2.095,2.0968,2.0967,2.0948,2.0933,2.092,2.0919,2.0929,2.0936,2.0935,2.084,2.0839,0,0,0,2.0971,2.0953,2.0962,2.0948,2.0949,2.0967,2.0967,2.0934,2.0939,2.0919,2.0928,2.0935,2.0935,2.0841,2.084,2.0784,0,0,0,2.0971,2.0951,2.0962,2.0949,2.0949,2.0942,2.0953,2.094,2.0939,2.0928,2.0935,2.0935,2.0842,2.0841,2.0787,2.076,0,0,0,2.0963,2.095,2.0947,2.0948,2.0946,2.0942,2.0947,2.094,2.0944,2.0936,2.0934,2.0843,2.0841,2.079,2.0765,2.0729,0,0,0,2.0948,2.0895,2.0946,2.089,2.0945,2.091,2.0947,2.092,2.0907,2.0935,2.0842,2.084,2.0791,2.0768,2.0732,2.0694,2.0676,0,0,2.0869,2.0884,2.0853,2.0899,2.0849,2.0912,2.0853,2.0859,2.0875,2.085,2.0848,2.0786,2.0765,2.0729,2.059,2.0576,0,0,0,2.0821,2.0798,2.079,2.0779,2.0785,2.0787,2.0806,2.0809,2.0789,2.0859,2.0765,2.0753,2.0733,2.0715,2.0704,2.0687,2.0832,2.0832,2.0832,2.0675,2.0704,2.0655,2.0684,2.0672,2.0695,2.0687,2.0694,2.0723,2.0701,2.0692,2.0605,2.0583,2.0575,2.0558,2.0676,2.0676,2.0676,2.0676,2.0561,2.0533,2.0579,2.0547,2.0577,2.055,2.057,2.0592,2.057,2.0612,2.0596,2.0638,2.0559,2.0545,2.0672,2.0672,2.0673,2.0673,2.0673,2.0467,2.0459,2.0467,2.0456,2.0444,2.0475,2.0453,2.0481,2.0506,2.0491,2.0485,2.0486,2.0489,2.0487,2.0486,2.0486,2.0486,2.0486,2.0486,2.0366,2.0377,2.0357,2.0363,2.0361,2.0361,2.0386,2.0384,2.0388,2.041,2.041,2.0441,2.0547,2.0572,2.0481,2.0482,2.0482,2.0483,2.0483,2.0235,2.0271,2.0239,2.0238,2.0248,2.0235,2.0273,2.0267,2.027,2.0258,2.0295,2.037,2.0386,2.0395,2.0416,2.029,2.029,2.029,2.029,2.0155,2.0168,2.0144,2.014,2.014,2.0172,2.0135,2.0155,2.0179,2.0183,2.0206,2.0237,2.0245,2.0256,2.0269,2.0289,2.0133,2.0133,2.0133,2.0076,2.0092,2.0054,2.0083,2.0095,2.0103,2.0069,2.0061,2.0097,2.0127,2.0186,2.0192,2.0243,2.0258,2.0285,2.0303,2.034,0,0]}]]